Lexington Weather

Lexington, Massachusetts, USA

23°F
1/23/2020 8:12am 
  • Lexington Conditions: Partly cloudy
  • Temperature: 23.4°F / -4.8°CWarmer 2.0°F than last hour.
  • Dew Point: 17.8°FIncreased 1.1°Fsince last hour.
  • Relative Humidity: 79%Decreased 3.0% since last hour.
  • Wind: Calm, 10-min avg: Calm, gust: 1 mph
  • Barometer: 30.33 in Steady
  • Visibility: 10 miles
  • Snow Today: 0.0 in
  •   

Regional Weather Roundup
for Boston / Norton, MA

        
000
ASUS41 KBOX 221810
RWRBOX

REGIONAL WEATHER ROUNDUP
NATIONAL WEATHER SERVICE BOSTON/NORTON MA
100 PM EST WED JAN 22 2020

NOTE:  "FAIR" INDICATES FEW OR NO CLOUDS BELOW 12,000 FEET WITH NO 
SIGNIFICANT WEATHER AND/OR OBSTRUCTIONS TO VISIBILITY.

MAZALL-221900-
EASTERN MASSACHUSETTS
  
CITY           SKY/WX    TMP DP  RH WIND       PRES   REMARKS
BOSTON         FAIR      37  16  42 VRB7      30.39F WCI  32          
6HR MIN TEMP:  23; 6HR MAX TEMP:  38;                                

BEVERLY        FAIR      33  16  49 W7        30.38F WCI  27          
LAWRENCE       FAIR      31  16  54 SW7       30.39F WCI  24          
BEDFORD        FAIR      34  14  43 SW7       30.38F WCI  28          
BLUE HILL        N/A     30  15  53 VRB7      30.34F WCI  23          
NORWOOD        FAIR      37  14  38 W5        30.39F                  
MARSHFIELD     FAIR      36  14  41 VRB5      30.39F WCI  32          
PLYMOUTH       FAIR      34  13  41 SW7       30.39F WCI  28          
TAUNTON        FAIR      35  14  42 VRB3      30.39F                  
NEW BEDFORD    FAIR      34  12  40 W9        30.39F WCI  27          
$$

MAZALL-221900-
CAPE COD AND THE ISLANDS
  
CITY           SKY/WX    TMP DP  RH WIND       PRES   REMARKS
FALMOUTH       SUNNY     32   9  37 W8        30.39F WCI  25          
HYANNIS        FAIR      34   9  35 S7        30.38F WCI  28          
CHATHAM        FAIR      34  18  52 SW7       30.40F WCI  28          
PROVINCETOWN   FAIR      33  14  45 SW8       30.41F WCI  26          
NANTUCKET      FAIR      33  14  45 SW10      30.41F WCI  25          
MARTHAS VNYRD  FAIR      35  13  40 MISG      30.40F                  
$$
 
MAZALL-221900-
CENTRAL AND WESTERN MASSACHUSETTS
  
CITY           SKY/WX    TMP DP  RH WIND       PRES   REMARKS
WORCESTER      FAIR      29  13  51 W9G17     30.34F WCI  20          
6HR MIN TEMP:  13; 6HR MAX TEMP:  29;                                

FITCHBURG      FAIR      34  14  43 NW8       30.38F WCI  27          
ORANGE         FAIR      31  15  52 CALM      30.39F                  
SPRINGFIELD    MOSUNNY   29  14  53 CALM      30.39F                  
WESTFIELD      SUNNY     30  16  55 S5        30.39F WCI  25          
NORTH ADAMS    FAIR      30  17  58 VRB5      30.40S WCI  25          
PITTSFIELD     FAIR      28  17  63 W9        30.34F WCI  19          
$$
 
RIZALL-221900-
RHODE ISLAND
  
CITY           SKY/WX    TMP DP  RH WIND       PRES   REMARKS
PROVIDENCE     FAIR      35  15  44 S5        30.40F WCI  31          
6HR MIN TEMP:  14; 6HR MAX TEMP:  36;                                

NEWPORT        NOT AVBL                                               
BLOCK ISLAND   FAIR      32  20  61 W9        30.41F WCI  24          
SMITHFIELD     FAIR      33  14  45 VRB5      30.37F WCI  29          
WESTERLY       FAIR      36  14  40 VRB3      30.41F                  
$$
 
CTZALL-221900-
CONNECTICUT
  
CITY           SKY/WX    TMP DP  RH WIND       PRES   REMARKS
BRADLEY INTL   PTSUNNY   32  16  51 CALM      30.40F                  
6HR MIN TEMP:   4; 6HR MAX TEMP:  32;                                

HARTFORD       FAIR      33  17  51 CALM      30.42F                  
BRIDGEPORT     FAIR      33  18  53 SW9       30.42F WCI  25          
DANBURY        FAIR      31  14  49 CALM      30.41F                  
GROTON         FAIR      33  19  56 S7        30.40F WCI  27          
NEW HAVEN      FAIR      36  16  44 W8        30.41F WCI  30          
CHESTER        NOT AVBL                                               
MERIDEN        FAIR      33  15  47 W7        30.41F WCI  27          
WILLIMANTIC    FAIR      31  16  54 SW6       30.40F WCI  25          
OXFORD         FAIR      32  17  54 W5        30.38F WCI  27          
$$

MEZ002-015-021-024-NHZ003-005-008-011-012-014-VTZ005-008-221900-
NORTHERN NEW ENGLAND
  
CITY           SKY/WX    TMP DP  RH WIND       PRES   REMARKS
PORTLAND ME    FAIR      31  15  52 NE3       30.38F                  
6HR MIN TEMP:   8; 6HR MAX TEMP:  32;                                

BANGOR ME      PTSUNNY   30  14  51 S6        30.36F WCI  24          
CONCORD NH     FAIR      31  14  49 CALM      30.36F                  
MANCHESTER NH  FAIR      33  14  45 CALM      30.36F                  
NASHUA NH      FAIR      34  17  50 E3        30.38F                  
PORTSMOUTH NH  SUNNY     33  13  43 SW6       30.36F WCI  27          
JAFFREY NH     FAIR      31  15  52 NW8       30.33F WCI  23          
KEENE NH       FAIR      28  14  55 CALM      30.38F                  
BURLINGTON VT  PTSUNNY   32  20  61 S14       30.32F WCI  22          
MT. WASHINGTON MOSUNNY   16   3  57 NW44G53     N/A  WCI  -8          
$$

NYZ052-076-221900-
EASTERN NEW YORK
  
CITY           SKY/WX    TMP DP  RH WIND       PRES   REMARKS
ALBANY         FAIR      31  18  58 S3        30.44S                  
6HR MIN TEMP:  22; 6HR MAX TEMP:  32;                                

NEW YORK CITY  FAIR      36  16  44 NE3       30.43F                  
6HR MIN TEMP:  27; 6HR MAX TEMP:  36;                                

$$
 
ANZALL-221900-
MARINE OBSERVATIONS
  
STATION/POSITION TIME  TEMP    WIND        PRES    VSBY  WAVE
                       AIR SEA DIR/SP/G                  HT/PER
                 (UTC) (F)     (DEG/KT/KT) (MB)    (MI)  (FT/S)
BOSTON BUOY      1750   31 42  280/  6/ 10 1028.9F         1/11
BUZZARDS BAY     1700   30     270/  3/  5 1031.0F
NANTUCKET SOUND  1740                      1030.0
MASS BAY-STELLWA 1704   30 41  300/  8/ 10 1028.1F  1 7/8  2/11
ISLE OF SHOALS   1800   30     270/  5/  6 1028.5F
S OF BLOCK IS    1800      46                N/A           1/ 9
$$

......................KEY.........................
  SKY/WX - SKY CONDITION/PRESENT WEATHER
  TMP    - TEMPERATURE IN FAHRENHEIT
  DWPT   - DEWPOINT IN FAHRENHEIT
  RH     - RELATIVE HUMIDITY IN PERCENT
  WIND   - DIRECTION AND SPEED IN MPH
  PRES   - MEAN SEA LEVEL PRESSURE IN INCHES OF HG
  WCI    - WIND CHILL INDEX
  VSB    - VISIBILITY IN MILES
  HX     - HEAT INDEX
  TC     - TEMPERATURE IN CELSIUS
  VRB    - VARIABLE WIND DIRECTION
  N/A    - NOT AVAILABLE
  
      

Other recent Regional Weather Roundups

Thu Jan 23, 8:00am

Thu Jan 23, 7:10am

Thu Jan 23, 7:01am

Thu Jan 23, 6:10am

Thu Jan 23, 6:00am

Thu Jan 23, 5:10am

Thu Jan 23, 5:00am

Thu Jan 23, 4:10am

Thu Jan 23, 4:01am

Thu Jan 23, 3:10am

Thu Jan 23, 3:00am

Thu Jan 23, 2:10am

Thu Jan 23, 2:00am

Thu Jan 23, 1:10am

Thu Jan 23, 1:00am

Thu Jan 23, 12:10am

Thu Jan 23, 12:00am

Wed Jan 22, 11:10pm

Wed Jan 22, 11:01pm

Wed Jan 22, 10:10pm

Wed Jan 22, 10:00pm

Wed Jan 22, 9:10pm

Wed Jan 22, 9:00pm

Wed Jan 22, 8:10pm

Wed Jan 22, 8:01pm

Wed Jan 22, 7:10pm

Wed Jan 22, 7:00pm

Wed Jan 22, 6:10pm

Wed Jan 22, 6:01pm

Wed Jan 22, 5:10pm

Wed Jan 22, 5:00pm

Wed Jan 22, 4:10pm

Wed Jan 22, 4:00pm

Wed Jan 22, 3:10pm

Wed Jan 22, 3:00pm

Wed Jan 22, 2:10pm

Wed Jan 22, 2:00pm

Wed Jan 22, 1:00pm

Wed Jan 22, 12:10pm

Wed Jan 22, 12:00pm

Wed Jan 22, 11:10am

Wed Jan 22, 11:00am

Wed Jan 22, 10:10am

Wed Jan 22, 10:01am

Wed Jan 22, 9:10am

Wed Jan 22, 9:00am

Wed Jan 22, 8:10am

Wed Jan 22, 8:00am

Wed Jan 22, 7:10am

Wed Jan 22, 7:00am

Wed Jan 22, 6:10am

Wed Jan 22, 6:00am

Wed Jan 22, 5:10am

Wed Jan 22, 5:00am

Wed Jan 22, 4:10am

Wed Jan 22, 4:00am

Wed Jan 22, 3:10am

Wed Jan 22, 3:01am

Wed Jan 22, 2:10am

Wed Jan 22, 2:00am

Wed Jan 22, 1:10am

Wed Jan 22, 1:00am

Wed Jan 22, 12:10am

Wed Jan 22, 12:00am

Tue Jan 21, 11:10pm

Tue Jan 21, 11:00pm

Tue Jan 21, 10:10pm

Tue Jan 21, 10:00pm

Tue Jan 21, 9:10pm

Tue Jan 21, 9:01pm

Tue Jan 21, 8:10pm

Tue Jan 21, 8:00pm

Tue Jan 21, 7:10pm

Tue Jan 21, 7:00pm

Tue Jan 21, 6:10pm

Tue Jan 21, 6:01pm

Tue Jan 21, 5:10pm

Tue Jan 21, 5:00pm

Tue Jan 21, 4:10pm

Tue Jan 21, 4:00pm

Tue Jan 21, 3:10pm

Tue Jan 21, 3:01pm

Tue Jan 21, 2:10pm

Tue Jan 21, 2:00pm

Tue Jan 21, 1:10pm

Tue Jan 21, 1:00pm

Tue Jan 21, 12:10pm

Tue Jan 21, 12:00pm

Tue Jan 21, 11:10am

Tue Jan 21, 11:00am

Tue Jan 21, 10:10am

Tue Jan 21, 10:00am

Tue Jan 21, 9:10am

Tue Jan 21, 9:00am

Tue Jan 21, 8:10am

Tue Jan 21, 8:00am

Tue Jan 21, 7:10am

Tue Jan 21, 7:00am

Tue Jan 21, 6:10am

Tue Jan 21, 6:00am

Tue Jan 21, 5:10am

Tue Jan 21, 5:00am

Tue Jan 21, 4:10am

Tue Jan 21, 4:00am

Tue Jan 21, 3:10am

Tue Jan 21, 3:00am

Tue Jan 21, 2:10am

Tue Jan 21, 2:01am

Tue Jan 21, 1:10am

Tue Jan 21, 1:00am

Tue Jan 21, 12:10am

Tue Jan 21, 12:00am

Mon Jan 20, 11:10pm

Mon Jan 20, 11:00pm

Mon Jan 20, 10:10pm

Mon Jan 20, 10:00pm

Mon Jan 20, 9:10pm

Mon Jan 20, 9:00pm

Mon Jan 20, 8:10pm

Mon Jan 20, 8:00pm

Mon Jan 20, 7:10pm

Mon Jan 20, 7:00pm

Mon Jan 20, 6:10pm

Mon Jan 20, 6:00pm

Mon Jan 20, 5:10pm

Mon Jan 20, 5:00pm

Mon Jan 20, 4:10pm

Mon Jan 20, 4:01pm

Mon Jan 20, 3:10pm

Mon Jan 20, 3:00pm

Mon Jan 20, 2:10pm

Mon Jan 20, 2:00pm

Mon Jan 20, 1:10pm

Mon Jan 20, 1:00pm

Mon Jan 20, 12:10pm

Mon Jan 20, 12:00pm

Mon Jan 20, 11:10am

Mon Jan 20, 11:00am

Mon Jan 20, 10:10am

Mon Jan 20, 10:00am

Mon Jan 20, 9:10am

Mon Jan 20, 9:00am

Meta data:

ID: a981809a-f677-4a5b-8ab8-1c250359439d
Link: https://api.weather.gov/products/a981809a-f677-4a5b-8ab8-1c250359439d